GSAT-16

Last updated on Sun Apr 12 2026 00:02:53 GMT+0000 (Coordinated Universal Time)

1 40332U 14078A 26101.46027507 .00000086 00000+0 00000+0 0 9995 2 40332 0.0766 82.1449 0006734 352.0071 346.3076 1.00273678 41434
UTC large
Height (km)
Speed (km/s)
/
Latitude / Longitude
Inclination (degrees)
Orbital Period (minutes)
Azimuth
Elevation
Range (km)
Doppler Factor

Next 0 passes for location: London (51.5072 / 0.1276)

Sorry there are no passes over London.
GSAT-16